# From MPC 62880 6P/d'Arrest,e,19.5151,138.9339,178.1336,3.495892,0.1507881,0.61276705,46.2970,06/18.0/2009,2000,g 7.5,16.0 # From MPC 54170 7P/Pons-Winnecke,e,22.3096,93.4179,172.3139,3.431527,0.1550504,0.63482608,40.9940,06/18.0/2009,2000,g 10.0,6.0 # From MPC 61707 8P/Tuttle,e,54.9668,270.3490,207.5248,5.698047,0.0724628,0.81956124,36.8187,06/18.0/2009,2000,g 8.0,8.0 # From MPC 62880 9P/Tempel,e,10.5245,68.9277,178.9296,3.124078,0.1784930,0.51690063,257.6759,06/18.0/2009,2000,g 5.5,10.0 # From MPC 59600 10P/Tempel,e,12.0227,117.8315,195.6229,3.068872,0.1833310,0.53626412,289.9910,06/18.0/2009,2000,g 5.0,10.0 # From MPC 56802 14P/Wolf,e,27.9444,202.1187,158.9974,4.242352,0.1127961,0.35786863,12.4884,06/18.0/2009,2000,g 5.5,12.0 # From MPC 63377 15P/Finlay,e,6.8171,13.7983,347.5067,3.482783,0.1516402,0.72150404,54.6520,06/18.0/2009,2000,g 12.0,4.0 # From MPC 51822 17P/Holmes,e,19.1161,326.8536,24.3224,3.620117,0.1430936,0.43285747,110.9249,06/18.0/2009,2000,g 10.0,6.0 # From MPC 63602 19P/Borrelly,e,30.3244,75.4365,353.3657,3.607319,0.1438557,0.62453164,47.5680,06/18.0/2009,2000,g 4.5,10.0 # From MPC 66205 22P/Kopff,e,4.7237,120.8923,162.8224,3.462671,0.1529633,0.54439988,3.6064,06/18.0/2009,2000,g 3.0,10.4 # From MPC 56804 24P/Schaumasse,e,11.7293,79.7185,58.0011,4.095564,0.1189142,0.70360021,353.7417,06/18.0/2009,2000,g 6.5,14.0 # From MPC 42666 29P/Schwassmann-Wachmann,e,9.3945,312.6347,48.3485,5.987628,0.0672701,0.04511464,121.8152,06/18.0/2009,2000,g 4.0,4.0 # From MPC 59599 30P/Reinmuth,e,8.1225,119.7532,13.2241,3.774054,0.1344286,0.50079103,318.9190,06/18.0/2009,2000,g 9.5,6.0 # From MPC 59600 31P/Schwassmann-Wachmann,e,4.5475,114.1879,18.0697,4.238425,0.1129529,0.19220507,306.9877,06/18.0/2009,2000,g 5.0,8.0 # From MPC 62883 36P/Whipple,e,9.9357,182.3950,201.8996,4.164767,0.1159626,0.25851619,252.5443,06/18.0/2009,2000,g 8.5,6.0 # From MPC 59600 43P/Wolf-Harrington,e,15.9772,250.0422,191.2932,3.351958,0.1606040,0.59510300,299.2038,06/18.0/2009,2000,g 8.0,6.0 # From MPC 60465 44P/Reinmuth,e,5.9043,286.6020,58.1213,3.686589,0.1392410,0.42849719,67.6136,06/18.0/2009,2000,g 8.3,6.0 # From MPC 60466 46P/Wirtanen,e,11.7403,82.1665,356.3185,3.091539,0.1813185,0.65812136,90.9384,06/18.0/2009,2000,g 9.0,6.0 # From MPC 56802 47P/Ashbrook-Jackson,e,13.0531,356.9828,357.6930,4.110698,0.1182580,0.31906300,16.2015,06/18.0/2009,2000,g 1.0,11.2 # From MPC 62882 49P/Arend-Rigaux,e,19.1063,118.9371,333.0283,3.552960,0.1471697,0.60189027,234.4787,06/18.0/2009,2000,g 11.3,4.4 # From MPC 56805 54P/de Vico-Swift-NEAT,e,6.0670,358.8616,1.9406,3.790345,0.1335629,0.42702982,338.1607,06/18.0/2009,2000,g 10.0,6.0 # From MPC 54171 57P/du Toit-Neujmin-Delporte,e,2.8485,188.8247,115.2831,3.448188,0.1539280,0.50010235,26.7921,06/18.0/2009,2000,g 12.5,6.0 # From MPC 64498 59P/Kearns-Kwee,e,9.3412,313.0361,127.5273,4.488062,0.1036611,0.47515595,10.6118,06/18.0/2009,2000,g 7.0,6.0 # From MPC 63377 61P/Shajn-Schaldach,e,6.0091,163.1114,221.6446,3.677178,0.1397758,0.42672202,39.8174,06/18.0/2009,2000,g 6.0,10.0 # From MPC 56803 64P/Swift-Gehrels,e,8.9514,300.7414,96.3046,4.435443,0.1055112,0.68954389,0.3909,06/18.0/2009,2000,g 8.5,12.0 # From MPC 59598 65P/Gunn,e,10.3857,68.3597,196.5992,3.586584,0.1451051,0.31953940,322.7059,06/18.0/2009,2000,g 5.0,6.0 # From MPC 56802 67P/Churyumov-Gerasimenko,e,7.0408,50.1958,12.6998,3.464538,0.1528397,0.64021291,16.7567,06/18.0/2009,2000,g 11.0,4.0 # From MPC 56802 68P/Klemola,e,11.1448,175.3289,153.9745,4.892408,0.0910794,0.64045699,13.4828,06/18.0/2009,2000,g 10.0,4.0 # From MPC 56804 74P/Smirnova-Chernykh,e,6.6474,77.1026,87.2572,4.173636,0.1155932,0.14758729,355.0943,06/18.0/2009,2000,g 5.0,6.0 # From MPC 56804 77P/Longmore,e,24.3983,14.9167,196.6948,3.599272,0.1443385,0.35811257,357.1350,06/18.0/2009,2000,g 7.0,8.0 # From MPC 59598 81P/Wild,e,3.2375,136.0972,41.8137,3.453807,0.1535525,0.53736922,321.6505,06/18.0/2009,2000,g 7.0,6.0 # From MPC 59598 82P/Gehrels,e,1.1264,239.5183,226.3166,4.137771,0.1170993,0.12192076,335.5875,06/18.0/2009,2000,g 5.0,8.0 # From MPC 54171 85P/Boethin,e,4.2172,343.4491,53.5862,5.107638,0.0853835,0.77534800,15.6788,06/18.0/2009,2000,g 6.5,8.0 # From MPC 66205 88P/Howell,e,4.3817,56.7574,235.9606,3.112790,0.1794648,0.56196631,339.0980,06/18.0/2009,2000,g 11.0,6.0 # From MPC 56804 89P/Russell,e,12.0321,42.3911,249.3226,3.795584,0.1332865,0.39931972,351.9792,06/18.0/2009,2000,g 11.5,6.0 # From MPC 59599 94P/Russell,e,6.1829,70.9216,92.8775,3.516496,0.1494648,0.36301049,317.4237,06/18.0/2009,2000,g 9.0,6.0 # From MPC 62881 97P/Metcalf-Brewington,e,17.8718,185.3042,228.7909,4.782423,0.0942393,0.45950466,284.9788,06/18.0/2009,2000,g 5.5,6.0 # From MPC 51821 99P/Kowal,e,4.3327,28.2479,174.2474,6.144795,0.0647058,0.22978343,56.4722,06/18.0/2009,2000,g 4.5,6.0 # From MPC 56805 100P/Hartley,e,25.6527,37.8476,181.7049,3.410564,0.1564821,0.41875394,333.2196,06/18.0/2009,2000,g 9.0,8.0 # From MPC 59599 104P/Kowal,e,10.2706,235.6319,200.4330,3.263659,0.1671656,0.63875597,306.4228,06/18.0/2009,2000,g 12.5,4.0 # From MPC 54167 110P/Hartley,e,11.6791,287.7388,167.7069,3.617981,0.1432203,0.31248693,71.7280,06/18.0/2009,2000,g 1.0,12.0 # From MPC 62583 116P/Wild,e,3.6129,21.0335,173.5919,3.477777,0.1519678,0.37461723,355.3091,06/18.0/2009,2000,g 2.5,10.0 # From MPC 45658 117P/Helin-Roman-Alu,e,8.7034,58.9391,222.9909,4.086065,0.1193290,0.25542307,152.1351,06/18.0/2009,2000,g 2.5,8.0 # From MPC 59598 118P/Shoemaker-Levy,e,8.5094,151.8073,302.1383,3.463874,0.1528836,0.42722693,329.6806,06/18.0/2009,2000,g 12.0,4.0 # From MPC 52907 119P/Parker-Hartley,e,5.1905,244.0744,181.1136,4.284172,0.1111485,0.29050800,165.3129,06/18.0/2009,2000,g 3.5,8.0 # From MPC 54168 124P/Mrkos,e,31.3603,1.2852,181.4997,3.211884,0.1712238,0.54249336,71.3436,06/18.0/2009,2000,g 13.5,2.8 # From MPC 66205 126P/IRAS,e,45.8278,357.7653,356.7469,5.643213,0.0735215,0.69639620,341.6407,06/18.0/2009,2000,g 6.0,8.0 # From MPC 56805 127P/Holt-Olmstead,e,14.3194,13.6877,6.5239,3.445377,0.1541164,0.36270440,340.6852,06/18.0/2009,2000,g 11.0,6.0 # From MPC 51822 128P/Shoemaker-Holt,e,4.3566,214.3784,210.3766,4.511413,0.1028573,0.32025730,75.6675,06/18.0/2009,2000,g 8.5,4.0 # From MPC 50140 129P/Shoemaker-Levy,e,3.6122,295.4454,206.7090,3.711203,0.1378580,0.30615444,169.8913,06/18.0/2009,2000,g 11.0,4.0 # From MPC 65937 131P/Mueller,e,7.3540,214.2180,179.6422,3.680227,0.1396022,0.34251708,229.5669,06/18.0/2009,2000,g 11.0,4.0 # From MPC 60282 136P/Mueller,e,9.4277,137.5513,224.9585,4.191201,0.1148673,0.29348307,69.4169,06/18.0/2009,2000,g 11.0,4.0 # From MPC 56803 137P/Shoemaker-Levy,e,4.8537,233.1209,140.8130,4.501239,0.1032063,0.57449813,3.6566,06/18.0/2009,2000,g 11.0,4.0 # From MPC 60666 139P/Vaisala-Oterma,e,2.3290,242.4436,165.5401,4.519026,0.1025975,0.24703947,43.5570,06/18.0/2009,2000,g 9.5,4.0 # From MPC 59599 142P/Ge-Wang,e,12.3014,176.5414,175.8530,4.967172,0.0890308,0.49930989,329.1035,06/18.0/2009,2000,g 8.5,6.0 # From MPC 56803 143P/Kowal-Mrkos,e,4.6899,245.3684,320.7603,4.300589,0.1105127,0.40980198,0.6412,06/18.0/2009,2000,g 13.5,2.0 # From MPC 64498 144P/Kushida,e,4.1092,245.5568,216.0919,3.866007,0.1296612,0.62779530,18.4313,06/18.0/2009,2000,g 8.5,8.0 # From MPC 56803 145P/Shoemaker-Levy,e,11.2992,26.9025,10.1421,4.131003,0.1173872,0.54215673,9.7882,06/18.0/2009,2000,g 13.5,4.0 # From MPC 60927 148P/Anderson-LINEAR,e,3.6784,89.7988,6.6478,3.683181,0.1394342,0.53783789,54.5605,06/18.0/2009,2000,g 16.0,2.0 # From MPC 59598 149P/Mueller,e,29.7354,145.2662,43.7897,4.335697,0.1091731,0.38862978,333.1127,06/18.0/2009,2000,g 8.0,8.0 # From MPC 54170 150P/LONEOS,e,18.5004,272.4279,245.6687,3.891283,0.1283999,0.54572069,26.1953,06/18.0/2009,2000,g 13.5,4.0 # From MPC 65938 152P/Helin-Lawrence,e,9.8710,91.9596,163.9179,4.497738,0.1033268,0.30829259,244.5636,06/18.0/2009,2000,g 11.5,4.0 # From MPC 59598 157P/Tritton,e,7.2782,300.1178,148.6978,3.411953,0.1563866,0.60121054,321.2962,06/18.0/2009,2000,g 10.0,4.0 # From MPC 65939 158P/Kowal-LINEAR,e,7.9084,137.3095,231.5772,4.719578,0.0961279,0.02918593,245.9768,06/18.0/2009,2000,g 9.0,4.0 # From MPC 59599 162P/Siding Spring,e,27.8166,31.2525,356.3170,3.052142,0.1848405,0.59607949,311.3050,06/18.0/2009,2000,g 12.0,4.0 # From MPC 62880 164P/Christensen,e,16.2693,88.3637,325.9591,3.648178,0.1414458,0.54130936,258.9117,06/18.0/2009,2000,g 11.0,4.0 # From MPC 54366 166P/NEAT,e,15.3718,64.4487,321.4916,13.82856,0.0191663,0.38209240,49.6805,06/18.0/2009,2000,g 5.5,4.0 # From MPC 54367 167P/CINEOS,e,19.0879,295.7675,344.6707,16.27199,0.0150156,0.27395010,44.3827,06/18.0/2009,2000,g 9.5,2.0 # From MPC 56805 169P/NEAT,e,11.2996,176.1949,217.9626,2.605650,0.2343311,0.76678616,321.2637,06/18.0/2009,2000,g 16.0,2.0 # From MPC 54825 172P/Yeung,e,11.5158,40.0726,179.0772,3.513300,0.1496687,0.36218350,37.1119,06/18.0/2009,2000,g 13.0,4.0 # From MPC 54987 173P/Mueller,e,16.4938,100.5580,29.7301,5.700799,0.0724103,0.26084758,28.7027,06/18.0/2009,2000,g 7.5,4.0 # From CCO 17 174P/Echeclus,e,4.3403,173.3778,162.5215,10.75860,0.0279300,0.45792225,300.5047,06/18.0/2009,2000,g 9.5,2.0 # From CCO 17 176P/LINEAR,e,0.2378,346.5094,35.9819,3.192866,0.1727560,0.19329698,231.3206,06/18.0/2009,2000,g 15.0,2.0 # From MPC 66205 179P/Jedicke,e,19.8745,115.8487,295.4437,5.910169,0.0685968,0.30859873,38.6255,06/18.0/2009,2000,g 2.5,8.0 # From MPC 62583 180P/NEAT,e,16.9115,84.7520,94.9824,3.843537,0.1307999,0.35747062,50.6333,06/18.0/2009,2000,g 11.0,4.0 # From MPC 58540 183P/Korlevic-Juric,e,18.7358,5.8453,161.5580,4.502290,0.1031701,0.13516008,41.8663,06/18.0/2009,2000,g 12.5,2.0 # From MPC 59045 186P/Garradd,e,28.8758,327.7751,280.0590,4.860083,0.0919896,0.12201065,40.8060,06/18.0/2009,2000,g 7.5,4.0 # From MPC 62583 187P/LINEAR,e,13.7303,112.0047,132.1825,4.458064,0.1047091,0.17146190,26.5014,06/18.0/2009,2000,g 9.0,4.0 # From MPC 60099 188P/LINEAR-Mueller,e,10.5465,359.1319,26.4745,4.372610,0.1077936,0.41637315,59.2540,06/18.0/2009,2000,g 11.5,4.0 # From MPC 61438 195P/Hill,e,36.3608,243.2413,249.6035,6.477436,0.0597860,0.31477225,8.8537,06/18.0/2009,2000,g 8.5,4.0 # From MPC 66205 199P/Shoemaker,e,24.7565,92.9428,191.9217,5.972047,0.0675335,0.50847560,4.6717,06/18.0/2009,2000,g 10.0,4.0 # From MPC 63139 200P/Larsen,e,12.1200,234.8178,133.7682,4.909049,0.0906167,0.33343019,26.8772,06/18.0/2009,2000,g 9.0,4.0 # From MPC 64116 202P/Scotti,e,2.1849,194.5748,255.5526,3.776618,0.1342918,0.33088019,17.5949,06/18.0/2009,2000,g 13.5,4.0 # From MPC 63822 203P/Korlevic,e,2.9760,290.5608,154.5471,4.644224,0.0984769,0.31480850,336.8375,06/18.0/2009,2000,g 14.5,2.0 # From MPC 63822 204P/LINEAR-NEAT,e,6.5811,109.1057,355.0258,3.664512,0.1405012,0.47056575,26.8017,06/18.0/2009,2000,g 14.0,4.0 # From MPC 64116 205P/Giacobini,e,15.3034,179.6274,154.2429,3.539848,0.1479882,0.56873991,41.5740,06/18.0/2009,2000,g 13.0,4.0 # From MPC 64498 209P/LINEAR,e,19.1486,66.4472,149.7366,2.937405,0.1957755,0.68893660,12.3383,06/18.0/2009,2000,g 17.0,2.0 # From MPC 64768 210P/Christensen,e,10.2156,93.8844,345.7722,3.176288,0.1741102,0.83161770,31.3451,06/18.0/2009,2000,g 13.5,4.0 # From MPC 64768 211P/Hill,e,18.8721,117.2961,4.3916,3.566091,0.1463577,0.33762855,6.0359,06/18.0/2009,2000,g 12.5,4.0 # From MPC 64768 212P/NEAT,e,22.3975,98.9269,15.0383,3.927816,0.1266127,0.57880981,24.9113,06/18.0/2009,2000,g 17.0,2.0 # From MPC 65058 213P/Van Ness,e,10.2409,312.6945,3.1805,3.424377,0.1555363,0.37972730,246.7919,06/18.0/2009,2000,g 10.5,4.0 # From MPC 65058 214P/LINEAR,e,15.2135,348.2598,190.2702,3.605447,0.1439678,0.48861115,23.5222,06/18.0/2009,2000,g 13.0,4.0 # From MPC 65058 215P/NEAT,e,12.7907,75.4446,222.3720,4.021287,0.1222240,0.20079139,316.6523,06/18.0/2009,2000,g 11.0,4.0 # From MPC 65340 216P/LINEAR,e,9.0356,359.8942,151.5794,3.884137,0.1287544,0.44393770,32.1988,06/18.0/2009,2000,g 13.0,4.0 # From MPC 65648 217P/LINEAR,e,12.8816,125.6223,246.7441,3.944197,0.1258248,0.68967868,349.5609,06/18.0/2009,2000,g 12.0,4.0 # From MPC 65936 218P/LINEAR,e,18.1516,226.7437,10.6050,3.337921,0.1616181,0.49026982,359.3072,06/18.0/2009,2000,g 16.0,4.0 # From MPC 65936 219P/LINEAR,e,11.5224,231.0975,107.8189,3.652450,0.1411977,0.35278265,323.1376,06/18.0/2009,2000,g 11.0,4.0 # From MPC 65936 220P/McNaught,e,8.1325,150.1192,180.7742,3.112982,0.1794482,0.50253960,327.6158,06/18.0/2009,2000,g 15.0,4.0 # From MPC 66206 221P/LINEAR,e,11.4178,230.0164,39.6991,3.480080,0.1518170,0.48749105,21.8818,06/18.0/2009,2000,g 14.5,4.0 # From MPC 61436 C/1995 O1 (Hale-Bopp),e,89.2373,282.8944,130.5960,180.7874,0.0004055,0.99495539,0.0000,03/31.2137/1997,2000,g -2.0,4.0 # From MPC 62882 P/1996 R2 (Lagerkvist),e,2.6038,40.1886,334.0316,3.784606,0.1338669,0.30930496,245.9971,06/18.0/2009,2000,g 11.5,4.0 # From MPC 35205 P/1997 T3 (Lagerkvist-Carsenty),e,4.8428,63.1416,333.5063,6.673669,0.0571685,0.36339376,237.1084,06/18.0/2009,2000,g 13.0,2.0 # From MPC 34421 P/1998 U3 (Jager),e,19.0787,303.4974,180.9868,6.100094,0.0654183,0.64672953,246.5022,06/18.0/2009,2000,g 6.5,4.0 # From MPC 65938 P/1998 U4 (Spahr),e,31.5454,181.5210,251.7540,5.588066,0.0746125,0.31065473,282.4247,06/18.0/2009,2000,g 8.0,4.0 # From MPC 54169 P/1998 VS24 (LINEAR),e,5.0265,159.1727,244.4082,4.519174,0.1025925,0.24266561,39.9247,06/18.0/2009,2000,g 13.0,2.0 # From MPC 56804 P/1999 XB69 (LINEAR),e,11.3060,256.0534,220.3270,4.474311,0.1041394,0.63075436,356.0520,06/18.0/2009,2000,g 17.5,2.0 # From MPC 54170 P/1999 XN120 (Catalina),e,5.0258,285.4484,161.5887,4.187518,0.1150188,0.21099924,25.0285,06/18.0/2009,2000,g 13.5,2.0 # From MPC 65937 P/2000 Y3 (Scotti),e,2.2667,354.3408,89.2446,4.965810,0.0890674,0.20369789,277.5919,06/18.0/2009,2000,g 9.0,4.0 # From MPC 59599 P/2001 R6 (LINEAR-Skiff),e,17.3910,67.3792,308.4599,4.172151,0.1156549,0.47802586,327.4729,06/18.0/2009,2000,g 13.0,4.0 # From MPC 62881 P/2001 YX127 (LINEAR),e,7.9166,31.0721,114.9782,4.164296,0.1159823,0.17633653,267.3829,06/18.0/2009,2000,g 14.5,2.0 # From MPC 56803 P/2002 Q1 (Van Ness),e,36.2801,173.9959,185.0208,3.556950,0.1469222,0.56389695,13.0829,06/18.0/2009,2000,g 13.0,4.0 # From MPC 59600 P/2002 S1 (Skiff),e,27.0453,346.8471,38.0787,4.148795,0.1166329,0.41749755,310.6239,06/18.0/2009,2000,g 11.0,4.0 # From MPC 56804 P/2002 T1 (LINEAR),e,21.3957,14.2258,3.8243,3.645188,0.1416199,0.63931910,350.3009,06/18.0/2009,2000,g 18.0,4.0 # From MPC 59874 C/2002 VQ94 (LINEAR),e,70.5628,34.9933,100.0641,188.5866,0.0003806,0.96395479,0.4672,06/18.0/2009,2000,g 9.5,2.0 # From MPC 59600 P/2002 X2 (NEAT),e,23.5513,75.1344,351.6479,3.870408,0.1294401,0.45044821,298.7070,06/18.0/2009,2000,g 12.0,4.0 # From MPC 56803 P/2003 A1 (LINEAR),e,44.3333,54.0759,340.2651,3.831661,0.1314085,0.49992234,0.2576,06/18.0/2009,2000,g 13.5,4.0 # From MPC 62880 P/2003 CP7 (LINEAR-NEAT),e,12.3292,133.0974,42.6919,4.021147,0.1222304,0.24626038,274.5494,06/18.0/2009,2000,g 14.5,2.0 # From MPC 56169 C/2003 WT42 (LINEAR),e,31.4329,48.4373,92.4352,9964,0.0000010,0.99947917,0.0000,04/09.8888/2006,2000,g 11.5,2.0 # From MPC 60921 P/2004 A1 (LONEOS),e,10.5508,124.9777,21.9369,7.957614,0.0439066,0.31021659,76.6892,06/18.0/2009,2000,g 6.5,4.0 # From MPC 57131 C/2004 B1 (LINEAR),h,02/07.5522/2006,114.0969,272.8365,328.0035,1.001129,1.607247,2000,10.5,2.0 # From MPC 63599 C/2004 D1 (NEAT),e,45.5594,62.2394,75.5224,3408,0.0000050,0.99854034,0.0000,02/09.9981/2006,2000,g 11.5,2.0 # From MPC 57793 P/2004 F3 (NEAT),e,15.9817,78.8214,176.4358,4.021680,0.1222061,0.28597502,198.5974,06/18.0/2009,2000,g 9.0,4.0 # From MPC 54823 P/2004 FY140 (LINEAR),e,2.1267,327.1813,239.5776,4.935142,0.0898989,0.16691990,160.0945,06/18.0/2009,2000,g 12.5,2.0 # From MPC 56804 P/2004 X1 (LINEAR),e,5.1478,7.1254,345.4439,2.860330,0.2037416,0.72724356,344.2438,06/18.0/2009,2000,g 17.5,4.0 # From MPC 61702 C/2005 EL173 (LONEOS),h,03/05.4642/2007,130.6694,344.8133,261.4828,1.002253,3.886967,2000,11.5,2.0 # From MPC 54559 P/2005 L1 (McNaught),e,7.7359,138.3031,149.9191,3.979457,0.1241562,0.20883908,159.0898,06/18.0/2009,2000,g 9.5,4.0 # From MPC 59596 C/2005 L3 (McNaught),h,01/16.6949/2008,139.4496,288.7450,47.1692,1.000322,5.594417,2000,4.0,4.0 # From MPC 55978 P/2005 RV25 (LONEOS-Christensen),e,9.8851,246.8898,191.2995,4.322227,0.1096839,0.16636638,104.8718,06/18.0/2009,2000,g 9.5,4.0 # From MPC 54987 P/2005 S2 (Skiff),e,3.1407,161.2107,229.8341,7.979190,0.0437286,0.19828647,47.4503,06/18.0/2009,2000,g 7.5,4.0 # From MPC 60464 C/2005 S4 (McNaught),e,107.9591,318.2864,31.5522,5519,0.0000024,0.99893955,0.0000,07/19.5966/2007,2000,g 5.0,4.0 # From MPC 61994 P/2005 SB216 (LONEOS),e,24.1141,1.6732,83.4544,7.107646,0.0520134,0.46332971,44.6402,06/18.0/2009,2000,g 12.0,2.0 # From MPC 65935 C/2006 E1 (McNaught),h,01/07.7218/2007,83.1887,95.0396,232.8798,1.002988,6.043467,2000,6.0,4.0 # From MPC 60465 P/2006 F1 (Kowalski),e,21.2752,124.7611,186.8158,4.676388,0.0974627,0.11902498,47.2434,06/18.0/2009,2000,g 8.0,4.0 # From MPC 62270 C/2006 K1 (McNaught),h,07/20.7974/2007,53.8615,72.1173,296.4604,1.002731,4.425710,2000,7.5,4.0 # From MPC 62270 C/2006 K4 (NEAT),e,111.3427,116.6057,233.6591,2007,0.0000110,0.99841110,0.0000,11/29.5529/2007,2000,g 6.0,4.0 # From MPC 62270 C/2006 OF2 (Broughton),h,09/15.7012/2008,30.1705,318.5067,95.6151,1.001195,2.431334,2000,5.5,4.0 # From MPC 59042 C/2006 P1 (McNaught),e,77.8744,267.3822,155.9806,2225,0.0000094,0.99992323,0.0000,01/12.5023/2007,2000,g 6.0,4.0 # From MPC 61994 C/2006 Q1 (McNaught),e,59.0518,199.5500,344.3805,5084,0.0000027,0.99945638,0.0000,07/03.8360/2008,2000,g 5.0,4.0 # From MPC 61702 C/2006 S3 (LONEOS),e,166.0267,38.3175,140.0348,118081,0.0000000,0.99995649,0.0000,04/17.1336/2012,2000,g 2.0,4.0 # From MPC 60465 C/2006 S5 (Hill),e,10.1312,281.5451,182.0708,95.65507,0.0010535,0.97251737,0.0000,12/09.6103/2007,2000,g 8.0,4.0 # From MPC 65937 P/2006 T1 (Levy),e,18.2947,279.7868,179.6995,3.028883,0.1869736,0.66851887,184.5312,06/18.0/2009,2000,g 10.5,4.0 # From MPC 66204 C/2006 U6 (Spacewatch),e,84.8889,180.1813,276.6034,2290,0.0000090,0.99890905,0.0000,06/05.5096/2008,2000,g 8.0,4.0 # From MPC 62580 C/2006 V1 (Catalina),e,31.3339,335.5343,253.3800,217.6407,0.0003070,0.98773423,0.0000,11/25.7054/2007,2000,g 8.0,4.0 # From MPC 61436 C/2006 W3 (Christensen),h,07/06.6618/2009,127.0735,113.5726,133.5190,1.000035,3.126204,2000,5.0,4.0 # From MPC 61178 C/2007 B2 (Skiff),e,27.4943,14.8543,206.0569,777.6795,0.0000454,0.99617376,0.0000,08/21.0155/2008,2000,g 6.0,4.0 # From MPC 60922 P/2007 C2 (Catalina),e,8.6728,276.0925,179.3846,7.024245,0.0529425,0.46224281,34.5666,06/18.0/2009,2000,g 10.0,4.0 # From MPC 61436 C/2007 D1 (LINEAR),e,41.5438,171.0916,340.0483,2234,0.0000093,0.99606589,0.0000,06/16.7094/2007,2000,g 3.5,4.0 # From MPC 61436 C/2007 D3 (LINEAR),e,45.9229,148.4250,309.0514,701.6990,0.0000530,0.99257995,0.0000,05/27.5182/2007,2000,g 7.5,4.0 # From MPC 62270 C/2007 G1 (LINEAR),h,11/16.3408/2008,88.3305,78.9954,223.9923,1.001682,2.647289,2000,5.5,4.0 # From MPC 62270 P/2007 H1 (McNaught),e,11.8750,144.3642,202.6987,3.670504,0.1401573,0.37841395,93.9124,06/18.0/2009,2000,g 10.0,4.0 # From MPC 63599 C/2007 K3 (Siding Spring),h,04/21.6236/2008,16.2989,263.2478,23.5785,1.000560,2.050952,2000,9.5,4.0 # From MPC 63376 C/2007 M1 (McNaught),e,139.7209,326.8069,52.6726,1590,0.0000155,0.99529947,0.0000,08/12.2910/2008,2000,g 6.0,4.0 # From MPC 61437 C/2007 M2 (Catalina),e,80.9543,357.2884,220.6743,3010,0.0000060,0.99882355,0.0000,12/08.5886/2008,2000,g 8.0,4.0 # From MPC 65054 C/2007 N3 (Lulin),h,01/10.6437/2009,178.3737,338.5413,136.8685,1.000046,1.212240,2000,6.5,4.0 # From MPC 61437 C/2007 Q3 (Siding Spring),h,10/07.2885/2009,65.6504,149.4133,2.0977,1.000186,2.251609,2000,4.5,4.0 # From MPC 65645 P/2007 R1 (Larson),e,7.8745,181.6491,175.2147,6.032324,0.0665238,0.27837933,44.1516,06/18.0/2009,2000,g 8.0,4.0 # From MPC 64767 C/2007 S2 (Lemmon),e,16.8589,296.2403,210.4160,12.53334,0.0222128,0.55657452,6.1487,06/18.0/2009,2000,g 6.5,4.0 # From MPC 65935 C/2007 T5 (Gibbs),e,45.6142,109.8381,34.3831,46.36311,0.0031221,0.91267114,1.2177,06/18.0/2009,2000,g 8.0,4.0 # From MPC 63599 C/2007 U1 (LINEAR),h,08/07.1274/2008,157.7880,50.0490,0.9545,1.001234,3.329628,2000,9.0,4.0 # From MPC 63821 C/2007 VO53 (Spacewatch),e,86.9971,59.7467,75.0166,17068,0.0000004,0.99971626,0.0000,04/26.3878/2010,2000,g 7.0,4.0 # From MPC 63599 C/2007 W1 (Boattini),e,9.8889,334.5155,306.5560,24869,0.0000003,0.99996582,0.0000,06/24.8631/2008,2000,g 9.5,4.0 # From MPC 62271 C/2007 Y2 (McNaught),e,98.5015,303.4647,257.7202,1017,0.0000304,0.99585978,0.0000,04/08.5463/2008,2000,g 9.0,4.0 # From MPC 65935 C/2008 A1 (McNaught),h,09/29.1135/2008,82.5485,277.8842,348.4669,1.000345,1.073131,2000,6.5,4.0 # From MPC 62582 C/2008 C1 (Chen-Gao),e,61.7845,307.7834,180.9191,5186,0.0000026,0.99975657,0.0000,04/16.7914/2008,2000,g 10.0,4.0 # From MPC 65645 P/2008 CL94 (Lemmon),e,8.3507,33.4550,81.6900,6.167083,0.0643553,0.11958929,69.9834,06/18.0/2009,2000,g 8.0,4.0 # From MPC 64113 C/2008 E1 (Catalina),e,35.0401,189.0141,269.9816,10.69138,0.0281938,0.54835118,8.7475,06/18.0/2009,2000,g 7.0,4.0 # From MPC 62879 C/2008 E3 (Garradd),e,105.0762,105.6746,218.1254,2431,0.0000082,0.99772435,0.0000,08/02.5171/2008,2000,g 6.0,4.0 # From MPC 64767 C/2008 FK75 (Lemmon-Siding Spring),h,09/28.9907/2010,61.1650,218.2565,80.3870,1.003137,4.511767,2000,5.0,4.0 # From MPC 63136 C/2008 G1 (Gibbs),e,72.8483,215.9154,63.7466,357.0666,0.0001461,0.98882819,0.0000,01/12.2068/2009,2000,g 9.5,4.0 # From MPC 63137 C/2008 H1 (LINEAR),e,75.5021,34.6347,96.0334,50.66979,0.0027326,0.94552930,1.2533,06/18.0/2009,2000,g 10.5,4.0 # From MPC 65054 C/2008 J1 (Boattini),e,61.7760,273.4219,68.1356,169.1496,0.0004480,0.98980487,0.0000,07/13.2909/2008,2000,g 10.0,4.0 # From MPC 63376 P/2008 J2 (Beshore),e,10.2581,98.2503,131.6861,3.482940,0.1516300,0.30913768,68.8841,06/18.0/2009,2000,g 9.0,4.0 # From MPC 64496 P/2008 J3 (McNaught),e,25.3993,9.8559,4.4132,3.891905,0.1283692,0.41232491,12.7415,06/18.0/2009,2000,g 12.0,4.0 # From MPC 65054 P/2008 L2 (Hill),e,25.8582,217.9818,141.3378,6.003067,0.0670107,0.61393410,20.3272,06/18.0/2009,2000,g 12.5,4.0 # From MPC 65935 C/2008 N1 (Holmes),e,115.5204,357.4721,100.8103,979.0600,0.0000322,0.99715684,0.0000,09/25.8756/2009,2000,g 9.0,4.0 # From MPC 64497 P/2008 O2 (McNaught),e,9.5183,325.8604,27.4993,4.492900,0.1034937,0.15341091,5.9162,06/18.0/2009,2000,g 9.0,4.0 # From MPC 64114 C/2008 P1 (Garradd),h,07/22.8942/2009,64.3068,357.6762,11.8559,1.001940,3.896170,2000,7.0,4.0 # From MPC 65935 C/2008 Q1 (Maticic),e,118.6282,9.3061,104.4881,599.6589,0.0000671,0.99506514,0.0000,12/30.1633/2008,2000,g 10.0,4.0 # From MPC 66204 C/2008 Q3 (Garradd),e,140.7056,219.7347,340.8585,5901,0.0000022,0.99969528,0.0000,06/23.0977/2009,2000,g 10.0,4.0 # From MPC 64115 C/2008 R3 (LINEAR),e,43.2369,270.5589,84.1627,18.35416,0.0125344,0.89599080,2.6008,06/18.0/2009,2000,g 13.0,4.0 # From MPC 65340 C/2008 S3 (Boattini),h,06/04.2144/2011,162.7071,54.9323,39.7633,1.001951,8.022239,2000,4.0,4.0 # From MPC 65340 P/2008 T1 (Boattini),e,2.0830,291.7400,35.9901,4.233643,0.1131443,0.28101655,53.9918,06/18.0/2009,2000,g 11.0,4.0 # From MPC 65340 C/2008 T2 (Cardinal),h,06/13.2413/2009,56.3040,309.6783,215.8691,1.000055,1.202248,2000,6.0,4.0 # From MPC 64498 P/2008 T4 (Hill),e,6.3262,44.6812,1.2547,4.448074,0.1050621,0.43529027,18.4973,06/18.0/2009,2000,g 13.5,4.0 # From MPC 66204 P/2008 WZ96 (LINEAR),e,6.9576,59.1095,337.6262,3.358405,0.1601417,0.50980085,23.2332,06/18.0/2009,2000,g 13.5,4.0 # From MPC 65057 C/2008 X3 (LINEAR),e,66.4755,337.7518,140.7863,43.59638,0.0034240,0.95637633,0.8575,06/18.0/2009,2000,g 13.0,4.0 # From MPC 65935 P/2008 Y1 (Boattini),e,8.8050,259.7089,162.3651,4.798333,0.0937710,0.73491745,10.5870,06/18.0/2009,2000,g 15.0,4.0 # From MPC 65936 P/2008 Y2 (Gibbs),e,7.2754,330.8940,162.3296,3.589616,0.1449213,0.54356761,21.2474,06/18.0/2009,2000,g 16.0,4.0 # From MPC 65936 P/2008 Y3 (McNaught),e,38.8123,262.9293,238.2643,8.025728,0.0433488,0.44749946,6.8139,06/18.0/2009,2000,g 8.5,4.0 # From MPC 65058 P/2009 B1 (Boattini),e,22.2290,297.4359,128.5978,6.692997,0.0569211,0.63743923,7.5016,06/18.0/2009,2000,g 13.0,4.0 # From MPC 65647 C/2009 B2 (LINEAR),e,156.8743,18.8168,192.4999,42.01255,0.0036194,0.94459680,0.3713,06/18.0/2009,2000,g 12.5,4.0 # From MPC 66204 C/2009 E1 (Itagaki),e,127.4520,105.9620,48.9579,40.07166,0.0038855,0.98503367,0.0000,04/07.9214/2009,2000,g 11.5,4.0 # From MPC 66204 C/2009 F1 (Larson),e,171.3756,357.9500,219.5848,105.6229,0.0009080,0.98266821,0.0000,06/25.8905/2009,2000,g 15.0,4.0 # From MPC 66204 C/2009 F2 (McNaught),e,59.3488,214.0626,336.3645,353.5218,0.0001483,0.98338103,0.0000,11/14.3573/2009,2000,g 6.0,4.0 # From MPC 66204 C/2009 F4 (McNaught),h,12/31.2687/2011,79.3215,53.5642,260.3423,1.003681,5.455729,2000,3.0,4.0 # From MPC 66204 C/2009 F5 (McNaught),e,84.9882,219.0645,297.3612,79.56505,0.0013887,0.97178134,0.0000,11/04.8117/2008,2000,g 10.0,4.0 # From MPC 66204 C/2009 F6 (Yi-SWAN),e,85.7667,278.6795,129.7784,430.9151,0.0001102,0.99704335,0.0000,05/07.4413/2009,2000,g 6.0,4.0 # From MPEC 2009-L34 C/2009 G1 (STEREO),e,108.3101,120.6332,175.4383,446.7125,0.0001044,0.99747332,0.0000,04/16.5007/2009,2000,g 9.0,4.0 # From MPEC 2009-M49 P/2009 K1 (Gibbs),e,5.7467,172.7858,27.0484,3.677674,0.1397475,0.64022172,359.8744,06/25.0/2009,2000,g 17.0,4.0 # From MPEC 2009-M50 C/2009 K2 (Catalina),p,02/07.4813/2010,66.8264,147.7389,3.244857,123.7818,2000,10.0,4.0 # From MPC 66205 C/2009 K3 (Beshore),p,01/09.266/2011,146.680,251.413,3.90156,0.032,2000,8.5,4.0 # From MPEC 2009-M25 C/2009 K4 (Gibbs),p,06/18.951/2009,34.809,127.191,1.55854,29.880,2000,13.0,4.0 # From MPEC 2009-M26 C/2009 K5 (McNaught),p,04/30.073/2010,103.856,66.229,1.42146,257.879,2000,7.5,4.0 # From MPEC 2009-M51 P/2009 L2 (Yang-Gao),e,16.219,259.318,346.918,3.45501,0.153473,0.6245609,359.891,05/21.0/2009,2000,g 15.0,4.0